Regional Weather Roundup
Issued by NWS

Home | Current Version | Previous Version | Graphics & Text | Print | Product List | Glossary On
Versions: 1 2 3 4 5 6 7 8 9 10 11 12 13 14 15 16 17 18 19 20 21 22 23 24 25 26 27 28 29 30 31 32 33 34 35 36 37 38 39 40 41 42 43 44 45 46 47 48 49 50
000
ASUS43 KMKX 262111
RWRWI

WISCONSIN REGIONAL WEATHER ROUNDUP
NATIONAL WEATHER SERVICE MILWAUKEE/SULLIVAN WI
300 PM CST SUN FEB 26 2017

NOTE: "FAIR" INDICATES FEW OR NO CLOUDS BELOW 12,000 FEET WITH NO
SIGNIFICANT WEATHER AND/OR OBSTRUCTIONS TO VISIBILITY.

WIZ001-002-006>008-014>016-023>028-262200-
NORTHWEST WISCONSIN

CITY           SKY/WX    TMP DP  RH WIND       PRES   REMARKS
SUPERIOR ARPT  SUNNY     26   7  44 NW16      29.82R WCI  13
ASHLAND        MOSUNNY   27  12  53 W16       29.79R WCI  15
HAYWARD        MOSUNNY   31  12  45 NW10G21   29.76R WCI  22
SIREN          MOSUNNY   32  10  40 W14G21    29.80R WCI  22
CUMBERLAND     PTSUNNY   32  18  55 NW13G23   29.77R WCI  22
RICE LAKE      CLOUDY    35  22  60 W14       29.78R WCI  25
CHETEK         PTSUNNY   33  23  67 NW9G18    29.77R WCI  25
LADYSMITH      CLOUDY    33  23  66 W10       29.76R WCI  25
EAU CLAIRE     SUNNY     34  22  61 W16G23    29.79R WCI  24
MENOMONIE      SUNNY     35  23  62 SW12G21   29.79S WCI  27
NEW RICHMOND   PTSUNNY   34  20  56 NW10G21   29.79R WCI  26
OSCEOLA        PTSUNNY   36  18  47 W14G23    29.83R WCI  27
$$

WIZ003>005-009-010-017-018-262200-
NORTH CENTRAL WISCONSIN

CITY           SKY/WX    TMP DP  RH WIND       PRES   REMARKS
MANITOWISH WTR LGT SNOW  26  21  79 NW15G25   29.70R WCI  14
ARBOR VITAE    LGT SNOW  29  24  80 W18G29      N/A  VSB 3/4 WCI  17
WOODRUFF       LGT SNOW  29  24  80 W18G29      N/A  VSB 3/4 WCI  17
RHINELANDER    LGT SNOW  30  23  75 W17G35    29.69R WCI  18
EAGLE RIVER    PTSUNNY   30  22  73 W20       29.67R WCI  17
LAND O LAKES   SUNNY     32  22  68 W12G20    29.66S WCI  23
PHILLIPS       LGT SNOW  28  25  87 W7        29.72R WCI  21
TOMAHAWK       PTSUNNY   32  19  58 W13G23    29.72R WCI  22
MEDFORD        CLOUDY    32  20  62 W13G18    29.74R WCI  22
MERRILL        NOT AVBL
$$

WIZ029-030-035-036-043>047-262200-
CENTRAL WISCONSIN

CITY           SKY/WX    TMP DP  RH WIND       PRES   REMARKS
WAUSAU         CLOUDY    34  21  59 W16       29.74R WCI  24
MOSINEE        PTSUNNY   34  21  60 SW17G23   29.76R WCI  23
MARSHFIELD     SUNNY     34  19  54 W15       29.75S WCI  24
STEVENS POINT  PTSUNNY   35  19  52 W15G21    29.77R WCI  25
WAUPACA        PTSUNNY   41  19  40 SW18G28   29.78S
WAUTOMA        CLOUDY    39  21  48 W22G29    29.80R WCI  29
WISC RAPIDS    CLOUDY    38  20  48 W14G26    29.79R WCI  30
CAMP DOUGLAS   PTSUNNY   39  23  52 W22       29.80S WCI  29
$$

WIZ011>013-019>022-031-037>040-048>050-262200-
NORTHEAST WISCONSIN

CITY           SKY/WX    TMP DP  RH WIND       PRES   REMARKS
ANTIGO         CLOUDY    31  22  67 W13G22    29.72R WCI  21
SHAWANO        CLOUDY    40  20  45 W12G24    29.76R WCI  32
OCONTO         CLOUDY    37  22  56 W20G26    29.76R WCI  26
STURGEON BAY   MOSUNNY   37  23  56 SW17      29.75S WCI  27
GREEN BAY      PTSUNNY   40  26  57 SW10      29.77S WCI  33
MANITOWOC      SUNNY     38  24  57 SW16G22   29.80S WCI  29
APPLETON       PTSUNNY   39  21  48 SW16      29.77R WCI  30
CLINTONVILLE   CLOUDY    37  19  48 W16G23    29.77R WCI  28
OSHKOSH        SUNNY     38  24  57 SW14G21   29.80R WCI  30
$$

WIZ032>034-041-042-053>061-262200-
SOUTHWEST WISCONSIN

CITY           SKY/WX    TMP DP  RH WIND       PRES   REMARKS
LA CROSSE      SUNNY     41  25  53 W14       29.84R
SPARTA         MOSUNNY   40  25  56 SW9G17    29.83R WCI  34
VIROQUA        SUNNY     37  23  56 W16       29.83R WCI  28
BOSCOBEL       SUNNY     43  24  47 W14G22    29.87R
PRAIRIE DU CHI SUNNY     42  24  47 W12       29.87S
PLATTEVILLE    SUNNY     43  29  58 W18       29.88R
$$

WIZ056-057-062-063-064-067-068-262200-
SOUTH CENTRAL WISCONSIN

CITY           SKY/WX    TMP DP  RH WIND       PRES   REMARKS
REEDSBURG      MOSUNNY   39  24  55 SW14G23   29.84R WCI  31
BARABOO/DELLS  MOSUNNY   38  23  55 W14       29.83R WCI  30
LONE ROCK      MOSUNNY   43  26  51 W13       29.86S
MINERAL POINT  MOSUNNY   43  30  61 SW18G24   29.85R
MADISON        MOSUNNY   41  25  53 SW8G20    29.85S
MIDDLETON      SUNNY     43  29  58 W15       29.85S
WATERTOWN      MOSUNNY   41  27  57 SW15G23   29.84S
MONROE         SUNNY     43  23  45 W21       29.86S
JANESVILLE     MOSUNNY   46  25  42 SW18G24   29.87F
$$

WIZ051-052-058>065-066-070>072-262200-
SOUTHEAST WISCONSIN

CITY           SKY/WX    TMP DP  RH WIND       PRES   REMARKS
MILWAUKEE      MOSUNNY   44  23  43 W22G32    29.87S
WAUKESHA       MOSUNNY   39  25  56 SW17G26   29.86S WCI  30
MILWAUKEE/TIMM MOSUNNY   43  23  45 SW18G24   29.86S
RACINE         SUNNY     45  23  42 W17G26    29.88F
KENOSHA        SUNNY     45  26  47 W18G28    29.88S
FOND DU LAC    SUNNY     38  25  59 SW13G21   29.82S WCI  30
SHEBOYGAN      SUNNY     38  25  59 SW22      29.82S WCI  27
WEST BEND      SUNNY     39  28  65 W17       29.83S WCI  30
JUNEAU         SUNNY     38  27  66 SW16G24   29.85S WCI  29
$$

LSZ147-162-262200-
LAKE SUPERIOR

STATION/POSITION TIME  TEMP    WIND        PRES    WAVE
                       AIR SEA DIR/SP/G            HT/PER
                 (UTC) (F)     (DEG/KT/KT) (MB)    (FT/S)
DEVILS ISLAND    2000   24     290/ 23/ 26 1008.4R
PORT WING        2030   25     300/ 14/ 19 1009.5R
SAXON HARBOR     2040   27     300/ 12/ 19 1008.1R
$$

LMZ867-665-643>646-262200-
LAKE MICHIGAN

STATION/POSITION TIME  TEMP    WIND        PRES    WAVE
                       AIR SEA DIR/SP/G            HT/PER
                 (UTC) (F)     (DEG/KT/KT) (MB)    (FT/S)
CHAMBERS ISLAND  2040   35     190/  6/ 15 1006.4S
NORTHPORT PIER   2040   36     220/  5/ 16 1006.8S
SISTER BAY       2020   39     250/ 19/ 24   N/A
KEWAUNEE LAKESHO 2048   38     240/ 13/ 20 1008.1S
SHEBOYGAN LAKESH 2100   39     230/ 18/ 21 1010.4S
PORT WASHINGTON  2040   43     260/ 10/ 20 1011.5S
MILWAUKEE LAKESH 2050   42     250/ 20/ 28   N/A
KENOSHA   LAKESH 2100   44     250/ 21/ 26 1012.5
$$

TC  - TEMPERATURE IN CELSIUS
VSB - VISIBILITY IN STATUTE MILES
WCI - WIND CHILL INDEX
HX  - HEAT INDEX





USA.gov is the U.S. government's official web portal to all federal, state and local government web resources and services.